This is the latest recevied weather packets stored in our database for station/object KB3HLL. If no packets are shown the sender has not sent any weather packets the latest 10 day(s).
| Time | Temp. | Humidity | Pressure | Rain* | Wind** | Luminosity | Snow |
|---|---|---|---|---|---|---|---|
| 1777854677 | 10° C | 54% | 1013.4 hPa | 0 mm | - | 0 W/m² | - |
| 1777854378 | 10° C | 55% | 1013.1 hPa | 0 mm | - | 0 W/m² | - |
| 1777854078 | 10° C | 55% | 1013.3 hPa | 0 mm | - | 1 W/m² | - |
| 1777853782 | 10° C | 54% | 1013.1 hPa | 0 mm | - | 1 W/m² | - |
| 1777853477 | 10.56° C | 53% | 1013.1 hPa | 0 mm | - | 2 W/m² | - |
| 1777853178 | 10.56° C | 53% | 1013.3 hPa | 0 mm | - | 4 W/m² | - |
| 1777852877 | 10.56° C | 54% | 1013.1 hPa | 0 mm | - | 7 W/m² | - |
| 1777852577 | 10.56° C | 53% | 1013.1 hPa | 0 mm | - | 10 W/m² | - |
| 1777852277 | 10.56° C | 53% | 1013.1 hPa | 0 mm | - | 14 W/m² | - |
| 1777851690 | 10.56° C | 52% | 1013 hPa | 0 mm | - | 23 W/m² | - |
| 1777851377 | 11.11° C | 53% | 1013 hPa | 0 mm | - | 27 W/m² | - |
| 1777851078 | 11.11° C | 53% | 1013 hPa | 0 mm | - | 32 W/m² | - |
| 1777850777 | 11.11° C | 51% | 1012.9 hPa | 0 mm | - | 34 W/m² | - |
| 1777850478 | 11.67° C | 52% | 1012.9 hPa | 0 mm | - | 39 W/m² | - |
| 1777850178 | 11.67° C | 52% | 1013 hPa | 0 mm | - | 45 W/m² | - |
| 1777849877 | 11.67° C | 51% | 1012.9 hPa | 0 mm | - | 61 W/m² | - |
| 1777849577 | 11.67° C | 51% | 1012.9 hPa | 0 mm | - | 61 W/m² | - |
| 1777849279 | 11.67° C | 49% | 1012.9 hPa | 0 mm | - | 77 W/m² | - |
| 1777848978 | 12.22° C | 49% | 1012.9 hPa | 0 mm | - | 102 W/m² | - |
| 1777848679 | 11.67° C | 49% | 1012.9 hPa | 0 mm | - | 95 W/m² | - |
| 1777848379 | 11.67° C | 51% | 1012.9 hPa | 0 mm | - | 127 W/m² | - |
| 1777848078 | 11.11° C | 51% | 1012.7 hPa | 0 mm | - | 128 W/m² | - |
| 1777847777 | 11.11° C | 50% | 1012.8 hPa | 0 mm | - | 89 W/m² | - |
| 1777847478 | 11.67° C | 49% | 1012.8 hPa | 0 mm | - | 98 W/m² | - |
| 1777847178 | 11.67° C | 49% | 1012.8 hPa | 0 mm | - | 84 W/m² | - |
* Rain latest hour (hover to see other rain measurements)
** Current wind speed in m/s (hover to see current wind gust speed)